Probability
0 0 0 0 0 0 0 0 0 0 1 1 0 0 0 0 0 0 0 1 1 1 0 1 2 2 1 0 0 0 0 0 0 0 0 0 0 0 0 0 0 0 0
0 0 0 0 0 0 0 1 1 1 2 2 1 1 0 0 0 0 0 1 3 2 1 2 3 1 0 0 0 0 0 0 0 0 0 0 0 0 0 0 0 0 0
0 0 0 0 0 0 0 1 2 3 3 3 3 2 1 0 0 0 0 1 3 3 3 4 4 1 0 0 0 0 0 0 0 0 0 0 0 0 0 0 0 0 0
0 0 0 0 0 0 0 1 2 3 3 3 3 2 1 0 0 0 0 1 3 3 4 4 4 1 0 0 0 0 0 0 0 0 0 0 0 0 0 0 0 0 0
0 0 0 0 0 0 0 0 1 1 2 3 3 2 1 0 0 0 0 1 2 2 2 2 2 1 0 0 0 1 1 0 0 0 0 0 0 0 0 0 0 1 1
0 0 0 0 0 0 0 0 0 0 1 1 2 1 1 1 1 0 0 1 1 1 1 1 2 2 1 1 1 2 1 0 0 0 0 0 0 0 0 0 1 2 2
0 0 0 1 1 0 0 0 0 0 0 1 1 1 0 1 1 0 0 0 0 1 1 2 3 3 2 2 3 2 1 0 0 0 0 0 0 0 0 0 2 2 2
0 0 0 1 1 0 0 0 0 0 1 1 1 1 0 0 0 0 0 0 1 2 3 3 3 3 3 3 4 3 1 0 0 0 0 0 0 0 0 0 2 3 3
0 0 0 1 1 0 0 0 0 0 0 0 1 1 0 0 0 0 0 0 1 2 3 3 3 3 3 4 4 3 1 0 0 0 0 0 0 0 0 0 2 3 3
0 0 0 0 0 0 0 0 0 0 0 0 0 0 0 0 0 0 0 0 1 2 3 3 3 3 3 3 4 3 1 0 0 0 0 0 0 0 0 0 1 3 3
0 0 0 0 0 0 0 0 0 0 0 0 0 0 0 0 0 0 0 0 0 1 3 3 3 3 2 2 3 3 2 0 0 0 0 0 0 0 0 0 1 2 2
0 0 0 0 0 0 0 0 0 0 0 0 0 0 0 0 0 0 0 0 0 1 2 2 2 1 1 1 1 2 1 0 0 0 0 0 0 0 0 0 0 1 1
0 0 0 0 0 0 0 0 0 0 0 0 0 0 0 0 0 0 0 0 0 0 1 1 1 0 0 0 0 0 0 0 0 0 0 0 0 0 0 0 0 0 0
0 0 0 0 0 0 0 0 0 0 0 0 0 0 0 0 0 0 0 0 0 0 0 0 0 0 0 0 0 0 0 0 0 0 0 0 0 0 1 1 1 1 0
0 0 0 0 0 0 0 0 0 0 0 0 0 0 0 0 0 0 0 0 0 0 0 0 0 0 0 0 0 0 0 0 0 1 0 0 0 0 1 2 2 2 1
0 0 0 0 0 0 0 0 0 0 0 0 0 0 0 0 0 0 0 0 0 0 0 0 0 0 0 0 0 0 0 0 0 0 0 0 1 0 0 1 2 2 2
0 0 0 0 0 0 0 0 0 0 0 0 0 0 0 0 0 0 0 0 0 0 0 0 0 0 0 0 0 0 0 0 0 0 0 0 0 0 0 0 1 1 1
0 0 0 0 0 0 0 0 0 0 0 0 0 0 0 0 0 0 0 0 0 0 0 0 0 0 0 0 0 0 0 0 0 0 0 0 0 0 0 0 0 0 0
0 0 0 0 0 0 0 0 0 0 0 0 0 0 0 0 0 0 0 0 0 0 0 0 0 0 0 0 0 0 0 0 0 0 0 0 0 0 0 0 0 0 0
0 0 0 0 0 0 0 0 0 0 0 0 0 0 0 0 0 0 0 0 0 0 0 0 0 0 0 0 0 0 0 0 0 0 0 0 0 0 0 0 0 0 0
0 0 0 0 0 0 0 0 0 0 0 0 0 0 0 0 0 0 0 0 0 0 0 0 0 0 0 0 0 0 0 0 0 0 0 0 0 0 0 0 0 0 0
0 0 0 0 0 0 0 0 0 0 0 0 0 0 0 0 0 0 0 0 0 0 0 0 0 0 0 0 0 0 0 0 0 0 0 0 0 0 0 0 0 0 0
0 0 0 0 0 0 0 0 0 0 0 0 0 0 0 0 0 0 0 0 0 0 0 0 0 0 0 0 0 0 0 0 0 0 0 0 0 0 0 0 0 0 0
0 0 0 0 0 0 0 0 0 0 0 0 0 0 0 0 0 0 0 0 0 0 0 0 0 0 0 0 0 0 0 0 0 0 0 0 0 0 0 0 0 0 0
0 0 0 0 0 0 0 0 0 0 0 0 0 0 0 0 0 0 0 0 0 0 0 0 0 0 0 0 0 0 0 0 0 0 0 0 0 0 0 0 0 0 0
0 0 0 0 0 0 0 0 0 0 0 0 0 0 0 0 0 0 0 0 0 0 0 0 0 0 0 0 0 0 0 0 0 0 0 0 0 0 0 0 0 0 0
Wind_Speed
1 1 4 6 6 7 7 7 8 9 9 9 10 10 10 9 10 9 9 9 9 9 9 9 9 9 10 10 9 9 9 9 9 9 8 8 8 8 8 8 7 5 8
4 2 4 6 6 6 6 7 7 8 8 9 10 10 9 9 9 9 9 9 10 9 9 9 10 9 10 10 9 9 9 9 8 8 8 7 7 7 7 8 7 5 8
4 2 3 5 6 6 6 7 7 8 8 9 9 9 9 9 9 9 9 9 9 10 10 9 9 10 10 10 10 9 9 9 8 8 7 3 4 7 7 8 8 8 8
5 3 3 5 6 6 6 6 7 7 8 8 8 9 9 9 9 9 9 9 9 9 9 9 9 9 10 10 10 9 9 9 8 7 4 3 3 7 8 8 8 8 8
4 3 3 6 6 6 6 7 7 7 7 7 7 8 8 9 9 9 9 9 9 9 9 9 9 9 9 9 9 9 9 9 9 7 4 3 3 7 8 8 8 8 7
3 2 3 6 6 6 6 7 7 7 7 7 7 7 8 8 8 8 8 9 9 9 9 9 9 9 9 9 9 9 9 9 8 5 4 3 3 7 9 8 8 8 7
3 2 3 6 6 7 7 7 6 6 7 7 7 7 7 7 7 7 8 8 8 9 9 9 9 9 9 9 9 9 10 9 6 4 3 3 4 8 8 8 8 8 8
4 3 3 6 6 6 6 6 6 6 6 6 6 6 6 6 6 7 7 7 7 8 8 8 9 9 9 9 10 10 10 8 7 5 3 3 6 8 8 8 8 7 7
4 3 2 2 3 4 5 5 5 5 5 5 5 5 5 5 5 6 6 6 7 7 8 8 8 8 9 9 10 10 10 9 5 3 4 2 6 8 8 8 7 7 7
3 3 2 1 1 1 1 3 4 4 4 4 4 4 4 4 4 5 5 5 6 7 7 7 7 7 8 9 10 10 10 8 4 3 2 4 8 8 8 8 7 7 7
3 2 2 2 2 2 1 1 2 2 2 2 2 4 3 2 2 2 3 5 6 6 6 7 7 8 8 8 10 10 8 3 4 3 2 6 8 8 8 7 7 7 7
3 2 2 2 2 2 1 1 1 1 1 1 1 1 1 1 1 2 3 5 6 6 6 7 8 7 6 4 6 7 3 4 3 3 3 7 8 8 8 7 7 7 7
3 3 2 2 2 2 1 1 1 1 1 1 2 2 2 2 2 2 2 3 3 4 3 4 5 3 3 3 3 3 3 3 3 2 4 7 7 8 8 8 8 7 7
3 3 2 2 2 2 2 1 1 1 1 1 1 2 2 2 2 2 1 2 2 2 3 3 3 4 4 4 4 4 4 3 3 2 3 7 8 8 8 8 8 8 7
3 2 3 3 3 2 2 1 2 1 1 1 2 2 3 2 2 2 2 2 2 2 3 3 3 4 4 4 4 5 4 4 4 3 3 7 8 8 8 8 8 8 8
3 3 3 4 3 3 2 2 2 1 2 2 2 2 3 3 3 3 3 2 2 2 3 3 4 4 4 4 4 4 4 3 3 3 3 4 7 7 7 8 8 8 8
5 4 3 4 3 4 3 3 2 2 2 3 2 3 3 3 3 3 3 2 2 3 3 3 4 4 4 4 4 4 3 3 3 3 3 2 3 6 7 7 8 8 8
5 4 3 4 4 4 3 3 2 2 2 2 2 2 3 3 4 3 3 2 2 3 3 3 3 4 4 3 3 3 3 2 3 3 3 3 2 3 5 8 8 8 8
6 5 4 4 4 3 3 3 2 2 2 2 2 2 3 3 4 3 3 2 3 3 3 3 3 3 3 3 2 3 3 2 2 3 3 3 3 3 3 5 7 8 8
5 5 5 4 4 3 3 3 2 3 2 2 2 2 3 2 3 4 3 3 3 3 3 3 3 3 2 2 3 4 3 3 2 2 2 2 2 3 3 3 3 4 7
5 5 5 4 3 3 2 2 2 1 1 1 1 2 3 3 3 3 3 3 3 3 3 3 3 3 2 2 3 3 4 4 3 2 2 2 2 2 3 3 3 2 3
5 5 5 5 4 3 2 2 2 2 1 0 1 2 2 2 2 3 3 2 2 3 3 3 3 2 1 1 3 2 2 3 3 3 2 2 2 2 3 3 3 3 2
6 6 6 5 4 3 3 2 2 2 2 2 2 1 1 1 2 3 3 3 2 2 2 2 2 3 1 0 1 3 3 1 1 3 3 3 2 2 2 2 2 2 2
6 6 6 5 4 3 4 4 4 3 2 1 1 1 1 0 2 2 3 3 2 2 2 2 2 2 2 1 0 0 2 3 2 1 3 3 3 2 2 2 2 2 2
6 6 5 5 4 3 4 5 4 3 2 1 1 1 0 0 1 2 2 2 2 2 2 2 2 2 2 2 1 1 1 1 2 2 1 2 2 2 1 1 1 1 1
5 5 5 5 4 3 4 4 5 4 3 2 1 1 1 0 0 0 2 2 2 2 2 2 2 2 1 1 1 1 2 2 2 2 2 1 1 1 2 1 1 1 1
Wind_Direction
254 257 90 80 76 73 73 75 76 74 70 69 70 71 71 72 78 83 84 84 87 87 83 80 79 77 78 82 88 94 99 98 99 97 97 98 98 99 103 107 102 98 101
174 167 101 88 82 79 76 78 81 78 73 72 71 71 71 74 80 83 85 86 88 88 85 83 80 79 77 79 85 92 95 96 94 92 91 92 96 101 106 106 106 107 105
141 133 110 98 88 86 83 82 85 86 79 74 72 72 72 74 83 86 87 88 88 86 84 81 80 81 78 79 81 86 92 90 87 85 84 79 89 98 106 108 107 107 104
141 137 118 105 97 95 92 89 89 91 87 82 78 76 76 77 81 87 88 87 89 89 87 84 82 82 82 81 79 80 85 83 82 78 70 72 86 100 108 109 106 106 103
130 131 123 113 108 104 100 96 92 91 90 87 84 81 79 81 82 85 87 89 90 89 86 85 83 80 84 83 81 79 81 81 76 70 63 64 75 100 106 106 105 104 103
127 139 133 121 116 115 108 99 94 93 92 90 89 84 82 83 85 86 87 88 90 90 89 86 83 79 80 80 79 79 80 79 72 62 59 61 77 96 101 102 101 104 104
136 149 138 122 118 120 115 109 105 102 98 95 89 87 85 84 86 89 94 94 94 93 91 88 84 80 77 74 75 81 85 83 75 66 63 63 84 95 101 102 99 100 100
151 152 132 124 123 123 120 116 112 108 104 100 93 88 85 86 89 89 99 101 100 99 98 93 85 83 77 73 74 79 84 84 80 73 60 68 94 97 102 103 100 100 101
149 144 147 132 121 125 129 126 122 113 104 100 97 92 88 88 92 91 98 104 107 108 105 99 91 86 79 78 77 78 82 81 70 63 70 70 92 97 99 103 102 100 100
132 137 160 154 136 136 136 140 134 127 117 108 106 107 98 93 95 91 92 105 111 113 111 102 93 86 81 77 74 74 75 71 58 53 45 74 85 91 94 96 97 97 95
121 134 148 158 174 188 205 161 138 131 126 113 103 103 81 45 49 70 89 106 110 112 108 100 91 86 79 73 72 73 68 56 55 44 41 74 82 85 87 89 93 96 94
128 140 147 150 157 160 147 89 14 43 50 71 83 92 67 67 55 76 70 94 97 98 92 89 87 81 71 60 67 70 63 56 54 45 52 71 81 82 83 83 86 92 93
146 137 129 138 124 103 92 89 56 48 53 57 69 94 86 72 57 56 52 48 61 73 66 68 68 66 70 71 66 67 64 60 52 39 51 70 78 80 80 80 82 85 90
133 131 127 119 99 98 92 71 68 67 60 60 65 89 95 87 80 79 69 57 54 65 73 68 71 69 72 74 76 73 68 65 56 38 49 68 74 77 80 82 81 81 87
129 129 131 111 106 98 85 78 75 59 65 64 70 85 98 100 101 96 81 79 80 78 81 78 77 79 75 72 78 81 77 72 67 52 40 63 70 73 73 73 76 78 83
145 141 130 119 122 111 96 80 74 62 54 62 67 84 93 97 100 97 85 82 79 80 82 85 83 83 75 73 72 77 76 74 71 66 45 45 59 65 66 65 72 76 79
153 145 134 128 114 110 104 89 83 69 68 62 59 74 86 93 93 95 94 87 79 85 85 79 72 71 73 69 63 65 69 70 72 67 55 37 35 53 61 63 68 74 80
149 146 135 119 109 106 103 96 86 74 70 64 54 64 76 85 97 95 92 87 88 85 84 85 78 77 70 64 57 51 62 64 63 68 59 49 43 42 52 63 65 72 78
155 148 127 114 115 107 99 96 93 81 70 66 60 62 73 79 87 93 89 94 95 88 82 96 82 91 88 73 65 55 50 57 52 73 63 54 52 50 45 54 60 64 69
149 138 131 125 121 111 93 81 67 60 49 52 64 67 79 85 87 90 91 84 86 88 76 82 90 80 92 90 76 57 37 40 47 61 62 55 55 59 57 53 45 50 58
142 134 136 131 137 122 109 106 97 83 44 33 52 72 79 89 93 94 96 91 88 94 97 99 96 81 71 90 81 48 25 30 42 43 41 49 47 51 61 60 56 43 38
150 149 147 149 152 149 146 151 153 149 130 86 37 54 66 82 99 109 111 109 103 103 94 93 100 98 83 88 108 92 33 6 8 25 32 55 46 49 60 75 66 58 45
154 160 158 160 157 155 145 117 91 67 48 38 23 12 1 72 100 111 120 118 114 119 133 137 132 131 150 295 127 135 137 193 326 348 8 27 35 52 55 75 80 67 61
169 162 156 161 158 158 146 137 137 137 152 207 213 236 305 67 112 126 134 135 133 132 140 160 142 144 141 173 330 98 150 154 147 348 342 360 19 41 49 80 84 70 61
165 161 162 159 158 159 153 152 149 150 178 188 172 171 278 337 97 124 139 140 140 143 147 146 130 130 143 156 162 113 85 82 119 139 239 328 357 1 27 63 80 73 65
155 155 156 156 164 164 159 156 156 161 166 158 171 184 221 277 324 122 145 140 147 151 160 161 150 145 145 136 135 134 144 149 159 145 164 214 292 321 3 22 69 78 68